Regional Weather Roundup
Issued by NWS Jackson, KY

Home | Current Version | Previous Version | Text Only | Print | Product List | Glossary On
Versions: 1 2 3 4 5 6 7 8 9 10 11 12 13 14 15 16 17 18 19 20 21 22 23 24 25 26 27 28 29 30 31 32 33 34 35 36 37 38 39 40 41 42 43 44 45 46 47 48 49 50
000
ASUS43 KJKL 241519
RWRJKL

EAST KENTUCKY HOURLY WEATHER ROUNDUP
NATIONAL WEATHER SERVICE JACKSON KY
1100 AM EDT FRI OCT 24 2014

NOTE: "FAIR" INDICATES FEW OR NO CLOUDS BELOW 12,000 FEET WITH
NO SIGNIFICANT WEATHER AND/OR OBSTRUCTIONS TO VISIBILITY.

* THESE REPORTS ARE NOT UNDER NWS QUALITY CONTROL AND MAY NOT
  REPORT WEATHER SUCH AS PRECIPITATION AND FOG.

KYZ079-080-083-085-087-088-110-112-115-119-120-241600
...EASTERN KENTUCKY...

CITY           SKY/WX    TMP DP  RH WIND       PRES   REMARKS
JACKSON        CLOUDY    49  44  83 CALM      30.14S
LONDON         CLOUDY    52  45  77 CALM      30.13S
SOMERSET*      MOSUNNY   52  43  71 CALM      30.15R
MONTICELLO*    SUNNY     56  46  69 CALM      30.15S
MIDDLESBORO*   CLOUDY    46  43  90 CALM      30.15R
HARLAN APT*    CLOUDY    45  43  93 CALM      30.14S
HAZARD APT*    SUNNY     46  46 100 CALM      30.14S
BLACK MTN*       N/A     48  36  61 VRB3        N/A
PIKEVILLE APT* PTSUNNY   43  43 100 CALM      30.14S FOG
BIG SANDY*     PTSUNNY   47  44  90 CALM      30.15R
MOREHEAD APT*  SUNNY     54  45  71 CALM      30.16S
ASHLAND*       SUNNY     48  43  81 CALM      30.12S
$$

KYZ035-036-041-042-044-050-067-078-099-241600
...CENTRAL KENTUCKY...

CITY           SKY/WX    TMP DP  RH WIND       PRES   REMARKS
MT STERLING*   MOSUNNY   54  45  71 CALM      30.16R
FLEMING/MASON* SUNNY     54  45  71 CALM      30.15S
DANVILLE*      PTSUNNY   50  45  81 CALM      30.16R
RICHMOND*      PTSUNNY   52  45  76 CALM      30.13F
LEXINGTON      MOSUNNY   54  48  80 CALM      30.14S HAZE
FRANKFORT      MOSUNNY   49  44  83 CALM      30.14S
$$

KYZ091>093-OHZ055-061-077-WVZ005-015-034-035-042-241600
...SOUTHERN OHIO/WEST VIRGINIA...

CITY           SKY/WX    TMP DP  RH WIND       PRES   REMARKS
COVINGTON      MOSUNNY   57  43  59 SW5       30.13S
COLUMBUS       MOSUNNY   51  42  71 SW3       30.12S
DAYTON         MOSUNNY   56  42  59 SW6       30.12S
WILMINGTON     SUNNY     56  43  61 SW3       30.12S
HUNTINGTON     MOSUNNY   50  45  83 CALM      30.13F
CHARLESTON     PTSUNNY   45  44  97 CALM      30.13F FOG
PINEVILLE*     FOG       43  43 100 MISG      30.20S VSB 1/2
BECKLEY        CLOUDY    45  41  86 CALM      30.13R
BLUEFIELD      CLOUDY    47  40  76 W7        30.14R
$$

VAZ002-007-008-TNZ017-027-036-066-071-241600
...SOUTHWEST VIRGINIA/EAST TENNESSEE...

CITY           SKY/WX    TMP DP  RH WIND       PRES   REMARKS
WISE*          CLOUDY    46  43  87 NE3       30.14S
JONESVILLE*    CLOUDY    48  41  76 CALM      30.16S
ABINGDON*      PTSUNNY   51  44  77 E3        30.13S
BRISTOL        CLOUDY    48  42  80 E3        30.13F
KNOXVILLE      PTSUNNY   55  44  66 N10       30.11F
OAK RIDGE      MOSUNNY   56  45  66 CALM      30.14S
CROSSVILLE     SUNNY     56  41  57 CALM      30.13S
NASHVILLE      MOSUNNY   59  45  59 CALM      30.15R
$$

...KEY TO REMARKS...
VSB - VISIBILITY IN MILES
WCI - WIND CHILL INDEX
HX  - HEAT INDEX

$$



USA.gov is the U.S. government's official web portal to all federal, state and local government web resources and services.